FALCON HEAVY R/B

基本信息
目录编号:
68894
目录名称:
FALCON HEAVY R/B
国际标识:
2026-096B
轨道中心:
EARTH
物体状态:
在轨
发射日期:
2026-04-29 UTC
国别:
美国 (US)
轨道信息
数据来源: 国际轨道数据
星历时间: 2026-06-24T08:34:59+0800
半长轴: 34425.6km
偏心率: 0.1482597
轨道倾角: 2.610°
近地点辐角: 182.564°
升交点赤经: 279.260°
平近点角: 177.015°
近地点: 22943.533km
远地点: 33151.393km
周期: 1059.454分钟
每日圈数: 1.359191
详细信息
发射场:
AFETR
轨道高度:
MEO
数据来源:
AOE Integration Group
参考系:
TEME
时间系统:
UTC
历元类型:
SGP4
2D轨道图
3D轨道图
轨道高度分析图
轨道倾角分析图
轨道综合分析图
查看轨道综合分析图